Location: Fond Mahaut
(18.0707°N, 63.0465°W)
Time: 10:36:44
(UTC+00:00)

SWIFT - Pass Details

Date: 08 December 2019
Orbit: 545 x 560 km, 20.6° (Epoch: 22 January)

Event Time Altitude Azimuth Distance (km) Brightness Sun altitude
Rises 22:45:47 0° 267° (W) 2,712 7.4 -16.2°
Reaches altitude 10° 22:48:05 10° 269° (W) 1,815 6.1 -16.7°
Maximum altitude 22:52:17 70° 354° (N) 583 2.3 -17.6°
Enters shadow 22:53:38 41° 64° (ENE) 803 2.6 -17.9°
